Find Starlink 4373

NORAD ID: 53219 Int'l Des: 2022-084 Owner: SPXS Country: US Constellation: starlink operational
LEOCIRCULARRETROGRADESSO

リアルタイム位置

3D地球を読み込み中...

Starlink 4373について

説明を読み込み中...

次回通過

Passes for default location (London). Set your location on the main map for personalized predictions.

高度履歴

Loading altitude history...

軌道要素

1 53219U 22084AG 26105.91520061 .00000301 00000-0 25038-4 0 9990
2 53219 97.6046 167.8888 0000533 151.0958 209.0299 15.05648823204986
Epoch: Apr 15, 2026 • Age: 6 hours

現在のステータス

高度 559.3 km
速度 7.58 km/s
衛星直下点 -26.40°S, 85.08°E
打ち上げ日 Jul 22, 2022
運用期間 3.7 years
タイプ internet

技術仕様

分類 Payload
質量 297.00 kg
乾燥質量 275.00 kg
総質量 297.00 kg
長さ 0.20 m
直径 2.80 m
スパン 9.00 m
形状 Box + pan
製造者 SPXS
バスタイプ Starlink
フェーズステータス In Orbit
所有者/国 SPXS/US

Most Searched